Dart — OUOV2 — position and weather

sailwx.info

Track history (hours):
 
Tides and Currents Weather Stations Pressure Air Temp Water Temp Dewpoint Dewpoint Depression Visibility Wind Speed Wind Dir Waves Ship Positions

Dart

Last reported at 2014-Nov-28 03:23 UTC. Time now 2014-Nov-28 08:33 UTC.
Position N 57°43' E 010°35'.

Length 66 m; draft 4 m.

Type: Tanker. MMSI: 219416000.

Date/timePositionNaut miles runAvg speedWind from/ knotsBaromVisibWave heightAir tempDewpointWater temp
2014-Nov-28 03:23N 57°43' E 010°35'0 0.0
2014-Nov-28 02:23N 57°43' E 010°35'0 0.0
2014-Nov-28 01:14N 57°43' E 010°35'0 0.0
2014-Nov-28 00:17N 57°43' E 010°35'0 0.0
2014-Nov-26 19:08N 57°43' E 010°35'0 0.0
2014-Nov-26 10:26N 57°43' E 010°35'0 0.0
2014-Nov-26 09:32N 57°43' E 010°35'0 0.0
2014-Nov-26 08:26N 57°43' E 010°35'0 0.0
2014-Nov-26 07:29N 57°43' E 010°35'0 0.0
2014-Nov-26 06:11N 57°43' E 010°35'0 0.0
2014-Nov-26 05:32N 57°43' E 010°35'0 0.0
2014-Nov-26 00:32N 57°43' E 010°35'0 0.0
2014-Nov-25 23:17N 57°43' E 010°35'0 0.0
2014-Nov-25 18:11N 57°43' E 010°35'0 0.0
2014-Nov-25 17:14N 57°43' E 010°35'0 0.0
2014-Nov-25 15:17N 57°43' E 010°35'0 0.0
2014-Nov-25 13:29N 57°43' E 010°35'0 0.0
2014-Nov-25 12:32N 57°43' E 010°35'0 0.0
2014-Nov-25 11:32N 57°43' E 010°35'0 0.0
2014-Nov-25 10:29N 57°43' E 010°35'0 0.0
2014-Nov-25 09:26N 57°43' E 010°35'0 0.0
2014-Nov-25 08:08N 57°43' E 010°35'0 0.0
2014-Nov-25 06:26N 57°43' E 010°35'0 0.0
2014-Nov-25 04:23N 57°43' E 010°35'0 0.0
2014-Nov-25 03:32N 57°43' E 010°35'  
2014-Nov-21 05:12N 55°37' E 007°14'710.5
2014-Nov-21 04:33N 55°31' E 007°07'1010.5
2014-Nov-21 03:33N 55°23' E 006°56'1010.5
2014-Nov-21 02:33N 55°14' E 006°46'1010.4
2014-Nov-21 01:33N 55°05' E 006°37'5810.7
2014-Nov-20 20:10N 54°14' E 005°49'711.1
2014-Nov-20 19:32N 54°08' E 005°46'1111.1
2014-Nov-20 18:33N 53°58' E 005°37'1111.4
2014-Nov-20 17:33N 53°51' E 005°22'1211.6
2014-Nov-20 16:33N 53°43' E 005°07'1611.5
2014-Nov-20 15:12N 53°32' E 004°49'811.9
2014-Nov-20 14:33N 53°25' E 004°44'2411.8
2014-Nov-20 12:33N 53°04' E 004°26'1211.0
2014-Nov-20 11:26N 52°53' E 004°16'29 9.9
2014-Nov-20 08:28N 52°27' E 003°54'9 9.6
2014-Nov-20 07:30N 52°18' E 003°52'9 9.5
2014-Nov-20 06:33N 52°09' E 003°54'8 7.9
2014-Nov-20 05:33N 52°01' E 003°58'1313.1
2014-Nov-20 04:33N 51°54' E 004°16'8 8.2
2014-Nov-20 03:33N 51°50' E 004°27'8 7.7
2014-Nov-20 02:34N 51°46' E 004°38'4 4.0
2014-Nov-20 01:33N 51°42' E 004°36'0 0.0
2014-Nov-20 00:33N 51°42' E 004°36'0 0.0
2014-Nov-19 23:33N 51°42' E 004°36'0 0.0
2014-Nov-19 22:33N 51°42' E 004°36'0 0.0
2014-Nov-19 21:33N 51°42' E 004°36'0 0.0
2014-Nov-19 20:33N 51°42' E 004°36'0 0.0
2014-Nov-19 19:33N 51°42' E 004°36'0 0.0
2014-Nov-19 18:33N 51°42' E 004°36'0 0.0
2014-Nov-19 17:33N 51°42' E 004°36'0 0.0
2014-Nov-19 16:33N 51°42' E 004°36'0 0.0
2014-Nov-19 15:33N 51°42' E 004°36'0 0.0
2014-Nov-19 14:33N 51°42' E 004°36'0 0.0
2014-Nov-19 13:33N 51°42' E 004°36'0 0.0
2014-Nov-19 12:33N 51°42' E 004°36'0 0.0
2014-Nov-19 11:33N 51°42' E 004°36'0 0.0
2014-Nov-19 10:33N 51°42' E 004°36'0 0.0
2014-Nov-19 09:33N 51°42' E 004°36'0 0.0
2014-Nov-19 08:33N 51°42' E 004°36'0 0.0
2014-Nov-19 07:33N 51°42' E 004°36'0 0.0
2014-Nov-19 06:33N 51°42' E 004°36'0 0.0
2014-Nov-19 05:33N 51°42' E 004°36'0 0.3
2014-Nov-19 04:33N 51°42' E 004°36'8 7.5
2014-Nov-19 03:33N 51°49' E 004°33'9 8.7
2014-Nov-19 02:33N 51°52' E 004°20'8 8.2
2014-Nov-19 01:33N 51°57' E 004°10'9 8.8
2014-Nov-19 00:33N 52°00' E 003°57'7 6.7
2014-Nov-18 23:32N 52°04' E 003°47'6 5.2
2014-Nov-18 22:18N 52°10' E 003°46'6 3.6
2014-Nov-18 20:31N 52°17' E 003°47'98 7.5
2014-Nov-18 07:30N 53°47' E 004°47'10 9.2
2014-Nov-18 06:24N 53°57' E 004°54'8 8.9
2014-Nov-18 05:33N 54°04' E 004°57'  
Track history (hours):
 
Tides and Currents Weather Stations Pressure Air Temp Water Temp Dewpoint Dewpoint Depression Visibility Wind Speed Wind Dir Waves Ship Positions

Dart

Last reported at 2014-Nov-28 03:23 UTC. Time now 2014-Nov-28 08:33 UTC.
Position N 57°43' E 010°35'.

Length 66 m; draft 4 m.

Type: Tanker. MMSI: 219416000.

Date/timePositionNaut miles runAvg speedWind from/ knotsBaromVisibWave heightAir tempDewpointWater temp
2014-Nov-28 03:23N 57°43' E 010°35'0 0.0
2014-Nov-28 02:23N 57°43' E 010°35'0 0.0
2014-Nov-28 01:14N 57°43' E 010°35'0 0.0
2014-Nov-28 00:17N 57°43' E 010°35'0 0.0
2014-Nov-26 19:08N 57°43' E 010°35'0 0.0
2014-Nov-26 10:26N 57°43' E 010°35'0 0.0
2014-Nov-26 09:32N 57°43' E 010°35'0 0.0
2014-Nov-26 08:26N 57°43' E 010°35'0 0.0
2014-Nov-26 07:29N 57°43' E 010°35'0 0.0
2014-Nov-26 06:11N 57°43' E 010°35'0 0.0
2014-Nov-26 05:32N 57°43' E 010°35'0 0.0
2014-Nov-26 00:32N 57°43' E 010°35'0 0.0
2014-Nov-25 23:17N 57°43' E 010°35'0 0.0
2014-Nov-25 18:11N 57°43' E 010°35'0 0.0
2014-Nov-25 17:14N 57°43' E 010°35'0 0.0
2014-Nov-25 15:17N 57°43' E 010°35'0 0.0
2014-Nov-25 13:29N 57°43' E 010°35'0 0.0
2014-Nov-25 12:32N 57°43' E 010°35'0 0.0
2014-Nov-25 11:32N 57°43' E 010°35'0 0.0
2014-Nov-25 10:29N 57°43' E 010°35'0 0.0
2014-Nov-25 09:26N 57°43' E 010°35'0 0.0
2014-Nov-25 08:08N 57°43' E 010°35'0 0.0
2014-Nov-25 06:26N 57°43' E 010°35'0 0.0
2014-Nov-25 04:23N 57°43' E 010°35'0 0.0
2014-Nov-25 03:32N 57°43' E 010°35'  
2014-Nov-21 05:12N 55°37' E 007°14'710.5
2014-Nov-21 04:33N 55°31' E 007°07'1010.5
2014-Nov-21 03:33N 55°23' E 006°56'1010.5
2014-Nov-21 02:33N 55°14' E 006°46'1010.4
2014-Nov-21 01:33N 55°05' E 006°37'5810.7
2014-Nov-20 20:10N 54°14' E 005°49'711.1
2014-Nov-20 19:32N 54°08' E 005°46'1111.1
2014-Nov-20 18:33N 53°58' E 005°37'1111.4
2014-Nov-20 17:33N 53°51' E 005°22'1211.6
2014-Nov-20 16:33N 53°43' E 005°07'1611.5
2014-Nov-20 15:12N 53°32' E 004°49'811.9
2014-Nov-20 14:33N 53°25' E 004°44'2411.8
2014-Nov-20 12:33N 53°04' E 004°26'1211.0
2014-Nov-20 11:26N 52°53' E 004°16'29 9.9
2014-Nov-20 08:28N 52°27' E 003°54'9 9.6
2014-Nov-20 07:30N 52°18' E 003°52'9 9.5
2014-Nov-20 06:33N 52°09' E 003°54'8 7.9
2014-Nov-20 05:33N 52°01' E 003°58'1313.1
2014-Nov-20 04:33N 51°54' E 004°16'8 8.2
2014-Nov-20 03:33N 51°50' E 004°27'8 7.7
2014-Nov-20 02:34N 51°46' E 004°38'4 4.0
2014-Nov-20 01:33N 51°42' E 004°36'0 0.0
2014-Nov-20 00:33N 51°42' E 004°36'0 0.0
2014-Nov-19 23:33N 51°42' E 004°36'0 0.0
2014-Nov-19 22:33N 51°42' E 004°36'0 0.0
2014-Nov-19 21:33N 51°42' E 004°36'0 0.0
2014-Nov-19 20:33N 51°42' E 004°36'0 0.0
2014-Nov-19 19:33N 51°42' E 004°36'0 0.0
2014-Nov-19 18:33N 51°42' E 004°36'0 0.0
2014-Nov-19 17:33N 51°42' E 004°36'0 0.0
2014-Nov-19 16:33N 51°42' E 004°36'0 0.0
2014-Nov-19 15:33N 51°42' E 004°36'0 0.0
2014-Nov-19 14:33N 51°42' E 004°36'0 0.0
2014-Nov-19 13:33N 51°42' E 004°36'0 0.0
2014-Nov-19 12:33N 51°42' E 004°36'0 0.0
2014-Nov-19 11:33N 51°42' E 004°36'0 0.0
2014-Nov-19 10:33N 51°42' E 004°36'0 0.0
2014-Nov-19 09:33N 51°42' E 004°36'0 0.0
2014-Nov-19 08:33N 51°42' E 004°36'0 0.0
2014-Nov-19 07:33N 51°42' E 004°36'0 0.0
2014-Nov-19 06:33N 51°42' E 004°36'0 0.0
2014-Nov-19 05:33N 51°42' E 004°36'0 0.3
2014-Nov-19 04:33N 51°42' E 004°36'8 7.5
2014-Nov-19 03:33N 51°49' E 004°33'9 8.7
2014-Nov-19 02:33N 51°52' E 004°20'8 8.2
2014-Nov-19 01:33N 51°57' E 004°10'9 8.8
2014-Nov-19 00:33N 52°00' E 003°57'7 6.7
2014-Nov-18 23:32N 52°04' E 003°47'6 5.2
2014-Nov-18 22:18N 52°10' E 003°46'6 3.6
2014-Nov-18 20:31N 52°17' E 003°47'98 7.5
2014-Nov-18 07:30N 53°47' E 004°47'10 9.2
2014-Nov-18 06:24N 53°57' E 004°54'8 8.9
2014-Nov-18 05:33N 54°04' E 004°57'  

Dump ship's entire track history